GFSSW_850_dewp_090.txt.gz
Dewpoint
-20 -22 -22 -22 -22 -23 -25 -28 -29 -30 -32 -33 -33 -33 -33 -32 -33 -31 -3 -10 -4 -7 -12 -25 -1 -3 -6 -5 -5 -2 -1 -1 -3 -5 -6 -10 -10 -11 -12 -12 -13 -13 -13 -11 -0
-19 -19 -20 -21 -22 -23 -25 -27 -29 -30 -31 -31 -32 -32 -33 -32 -33 -23 -8 -6 -8 -9 -10 -14 -6 -2 -7 -6 -6 -6 -1 -2 -6 -7 -7 -9 -9 -10 -10 -11 -10 -10 -11 -12 -5
-18 -18 -18 -20 -22 -24 -25 -26 -27 -29 -30 -31 -31 -32 -31 -31 -8 -2 -17 -13 -10 -11 -13 -12 -8 -5 -4 -6 -7 -7 -4 -5 -7 -7 -8 -9 -8 -8 -9 -8 -10 -9 -9 -10 -11
-16 -18 -17 -19 -21 -22 -23 -24 -26 -28 -29 -29 -30 -30 -30 -25 -7 -7 -12 -15 -22 -16 -4 -3 -11 -8 -7 -5 -6 -6 -8 -8 -7 -7 -7 -8 -8 -7 -8 -7 -9 -9 -9 -9 -8
-10 -17 -14 -17 -20 -19 -20 -22 -25 -26 -28 -30 -30 -29 -24 -0 -3 -6 -10 -21 -17 -10 0 -4 -7 -10 -9 -10 -8 -7 -8 -8 -8 -8 -8 -9 -10 -8 -8 -9 -9 -10 -9 -8 -8
-9 -11 -12 -13 -17 -18 -21 -23 -25 -27 -29 -29 -28 -24 -13 -4 -9 -9 -11 -10 -7 -4 -4 -4 -7 -9 -11 -11 -10 -11 -12 -13 -13 -11 -13 -10 -10 -12 -10 -10 -10 -10 -10 -9 -8
-5 -9 -12 -17 -21 -23 -25 -27 -28 -29 -30 -28 -26 -15 0 -5 -8 -7 -8 -9 -12 -11 -7 -5 -6 -7 -7 -6 -8 -8 -7 -8 -8 -9 -9 -9 -7 -8 -10 -10 -11 -11 -11 -10 -9
-6 -10 -13 -19 -22 -25 -28 -30 -30 -30 -28 -24 -13 -0 -3 -7 -5 -7 -8 -8 -9 -10 -11 -8 -6 -6 -5 -5 -6 -7 -8 -6 -11 -13 -14 -13 -9 -13 -14 -12 -10 -9 -9 -10 -9
-6 -10 -14 -21 -27 -31 -32 -30 -30 -28 -23 -15 -3 3 -4 -4 -6 -4 -3 -4 -5 -7 -10 -12 -11 -7 -6 -5 -5 -7 -6 -8 -11 -14 -12 -13 -9 -10 -10 -10 -8 -8 -8 -8 -8
-6 -9 -18 -28 -30 -32 -30 -20 -7 -11 -1 3 2 2 0 -5 -5 -4 -3 -4 -4 -6 -10 -11 -11 -10 -10 -8 -3 -6 -8 -11 -11 -13 -13 -11 -9 -9 -9 -9 -9 -10 -7 -7 -7
-6 -10 -22 -29 -30 -27 -22 -1 1 4 3 -0 -3 -1 -5 -13 -7 -8 -11 -7 -4 -5 -3 -7 -7 -8 -9 -10 -10 -8 -7 -6 -8 -9 -10 -9 -11 -12 -12 -12 -11 -10 -10 -10 -9
-5 -11 -20 -27 -26 -11 -5 -3 -4 -3 -6 -8 -10 -8 -6 -4 -3 -6 -9 -10 -8 -4 -6 -4 -4 -8 -10 -9 -8 -8 -6 -7 -8 -9 -8 -9 -9 -10 -10 -8 -8 -9 -8 -8 -8
-6 -20 -23 -24 -17 -5 -4 -4 -4 -3 -3 -7 -6 -5 -5 -3 -3 -5 -7 -10 -10 -8 -6 -5 -6 -8 -8 -7 -7 -8 -8 -8 -8 -9 -9 -7 -7 -6 -9 -10 -9 -8 -7 -7 -7
-12 -16 -19 -16 -4 -6 -1 -6 -3 -4 1 -6 -6 -5 -6 -9 -3 -4 -5 -6 -7 -6 -7 -8 -8 -7 -7 -5 -6 -5 -8 -7 -7 -7 -5 -7 -0 -3 -7 -9 -7 -6 -5 -4 -5
-13 -15 -18 -9 -4 -4 -5 -5 -2 2 -0 -10 -5 -5 -12 -9 -9 -6 -5 -6 -5 -7 -7 -6 -7 -7 -5 -5 -5 -5 -7 -7 -5 -2 -1 -2 -1 -5 -7 -7 -7 0 1 4 5
-13 -18 -10 -4 -4 -4 -5 -9 1 4 -2 -10 -10 -10 -16 -15 -12 -9 -7 -5 -6 -7 -8 -8 -10 -8 -6 -6 -7 -7 -5 -5 -4 -1 3 -1 -3 -4 -6 4 4 3 3 4 5
-16 -16 -12 -3 -1 -2 -18 0 2 -1 -17 -11 -11 -13 -16 -18 -19 -11 -12 -8 -5 -2 -2 -6 -8 -10 -8 -4 -5 -3 -1 -0 1 3 3 -1 2 -3 3 3 4 4 3 4 5
-16 -16 -8 -3 -3 -8 0 -1 -3 -14 -15 -13 -14 -16 -16 -21 -21 -13 -15 -14 -15 -3 -3 -5 -4 -7 -8 -6 -4 -3 -2 0 4 3 1 2 7 0 4 3 2 2 3 4 5
-15 -5 -0 -1 -13 -2 -1 -2 -7 -9 -12 -12 -16 -16 -19 -18 -12 -15 -15 -18 -7 -0 2 2 -1 -2 -5 -7 -8 -4 5 -2 3 3 4 -1 5 5 5 2 1 2 3 4 5
-2 -2 -3 -14 -13 0 -2 -5 -11 -11 -12 -13 -12 -17 -12 -12 -12 -12 -13 -10 -2 -2 -3 -1 2 -4 -5 0 -6 -4 -4 4 4 7 3 -2 -3 -1 8 4 1 2 3 4 4
-3 -3 -2 -21 -6 -1 0 -8 -11 -12 -11 -11 -11 -11 -11 -10 -10 -10 -11 -12 -4 -4 -5 -2 2 -1 -3 5 1 -2 0 2 4 4 5 6 7 8 7 7 2 2 3 3 4
-3 -0 -4 -6 -0 -5 -4 -8 -10 -12 -11 -11 -10 -9 -9 -10 -9 -9 -9 -11 -5 -4 -3 1 1 2 -1 -4 2 3 -2 1 7 5 2 5 6 7 7 2 2 2 3 3 3
-5 -5 -11 -1 1 -5 -7 -10 -11 -11 -11 -11 -10 -11 -11 -10 -8 -9 -8 -9 -4 -5 -3 -2 -1 1 -1 -5 2 5 4 3 3 5 8 9 6 3 1 -2 2 3 3 3 2
-5 1 -5 -5 -7 -4 -6 -9 -9 -9 -11 -12 -10 -11 -9 -7 -8 -7 -5 -5 -6 -8 1 1 -1 -1 2 -0 -0 5 5 2 5 9 6 7 6 6 4 4 4 3 2 2 1
-3 -1 -4 -2 -6 -8 -8 -8 -8 -9 -11 -11 -10 -9 -7 -6 -6 -7 -9 -9 -10 -1 1 2 2 -1 -2 -2 -2 1 6 1 3 4 8 4 2 6 6 5 3 2 2 1 -0
-5 -4 -8 -5 -8 -8 -9 -9 -10 -12 -10 -9 -9 -10 -11 -9 -9 -8 -8 -7 -5 -6 2 -3 -0 1 0 -3 -2 4 3 4 4 5 4 -1 5 3 2 2 2 1 -0 -1 -1
-5 -4 -3 -8 -7 -6 -6 -9 -10 -10 -9 -11 -11 -10 -9 -10 -11 -11 -10 -10 -8 -5 -1 -2 -1 1 0 -2 3 7 -0 -0 -4 1 1 4 4 1 2 1 -1 -0 -1 -2 -3

GFSSW_850_dewp_096.txt.gz
Dewpoint
5 4 -0 -8 -11 -13 -15 -18 -19 -23 -28 -29 -29 -29 -29 -30 -29 -28 -27 -21 -23 -13 -13 -13 -10 -9 -0 -11 -5 -2 2 3 3 2 0 -2 -4 -6 -6 -8 -8 -11 -11 -7 0
4 4 2 -6 -11 -13 -16 -17 -21 -26 -27 -26 -25 -25 -26 -27 -23 -18 -13 -15 -11 -13 -10 -9 -10 -12 -2 -6 -7 -5 -1 1 -0 -1 -1 -3 -4 -5 -7 -7 -7 -8 -4 0 7
4 2 0 -6 -11 -13 -17 -18 -23 -25 -22 -21 -20 -21 -24 -26 -21 -9 -17 -10 -11 -16 -12 -7 -7 -10 -9 -4 -6 -5 -3 -5 -5 -5 -4 -3 -4 -5 -7 -6 -7 -7 -8 -7 -1
3 1 -3 -8 -12 -14 -17 -20 -23 -20 -17 -17 -20 -21 -24 -23 -13 -5 -11 -9 -10 -20 -17 -12 -11 -11 -10 -5 -5 -5 -7 -7 -7 -7 -6 -6 -6 -7 -7 -6 -7 -7 -10 -11 -9
3 -1 -7 -11 -13 -16 -19 -21 -20 -17 -17 -19 -23 -24 -24 -18 -18 -13 -16 -9 -10 -18 -16 -9 -3 -5 -7 -10 -9 -5 -5 -5 -5 -6 -6 -7 -7 -7 -7 -8 -10 -10 -11 -11 -12
3 -1 -7 -11 -14 -17 -17 -17 -18 -20 -21 -24 -27 -26 -16 -4 -14 -8 -9 -9 -10 -11 -5 -2 -1 -2 -3 -5 -9 -10 -9 -10 -9 -8 -8 -8 -8 -8 -8 -9 -9 -10 -10 -10 -10
3 -2 -3 -11 -15 -16 -16 -19 -21 -23 -26 -27 -26 -16 -10 -22 -19 -9 -7 -7 -7 -8 -12 -10 -10 -10 -8 -5 -5 -5 -3 -5 -7 -8 -8 -9 -8 -8 -9 -9 -10 -10 -11 -10 -10
3 0 -5 -10 -14 -15 -17 -20 -24 -29 -27 -22 -14 -3 -7 -30 -10 -8 -8 -6 -7 -7 -8 -12 -12 -12 -10 -6 -5 -4 -4 -2 -7 -9 -9 -10 -7 -11 -12 -13 -12 -13 -12 -12 -12
2 -2 -5 -9 -14 -16 -18 -24 -30 -28 -16 -7 -5 -3 -1 -5 -4 -5 -3 -5 -7 -6 -7 -8 -9 -12 -11 -5 -3 -3 -1 -2 -4 -8 -8 -9 -7 -10 -11 -11 -11 -12 -12 -11 -10
4 -1 -5 -10 -11 -14 -21 -30 -27 -19 -3 -1 1 3 -3 -6 -8 -7 -3 -3 -4 -4 -6 -8 -10 -11 -9 -6 -1 -2 -2 -4 -4 -8 -9 -8 -8 -9 -9 -10 -10 -11 -11 -12 -13
2 -3 -5 -11 -9 -20 -27 -10 -4 1 1 1 -1 -1 -1 -3 -8 -8 -10 -8 -7 -8 -3 -8 -9 -7 -9 -9 -7 -6 -6 -6 -8 -10 -8 -7 -8 -10 -11 -10 -10 -10 -10 -11 -11
-0 -3 -6 -7 -14 -23 -8 -2 -4 -4 -4 -3 -2 1 0 -4 -8 -6 -7 -7 -9 -8 -4 -3 -5 -8 -9 -8 -8 -7 -7 -7 -8 -9 -8 -8 -8 -11 -11 -10 -10 -10 -10 -10 -10
-2 -4 -4 -9 -22 -11 -3 -4 -4 -6 -5 -10 -12 -4 -3 -7 -5 -4 -6 -7 -9 -7 -5 -2 -4 -5 -6 -5 -5 -6 -6 -6 -5 -7 -8 -8 -7 -8 -9 -10 -10 -9 -9 -8 -6
-2 -3 -6 -17 -17 -3 -2 -5 -7 -13 -2 -4 -6 -7 -8 -5 -3 -6 -5 -6 -7 -8 -8 -7 -9 -7 -6 -5 -4 -3 -6 -6 -5 -4 -2 -7 -1 -4 -6 -6 -6 -6 -4 6 6
0 -3 -10 -16 -1 -3 -3 -4 -6 1 -5 -5 -7 -6 -6 -6 -9 -5 -4 -5 -4 -4 -5 -3 -5 -6 -5 -5 -7 -5 -5 -4 -3 -3 -3 -3 -1 -4 -5 -5 -5 -4 6 6 6
-3 -8 -14 -12 -3 -2 -4 -5 -4 3 -6 -3 -5 -5 -9 -9 -12 -5 -5 -6 -6 -5 -5 -5 -6 -7 -7 -8 -7 -7 -4 -4 -4 -3 0 -2 -1 -2 -3 1 6 6 7 7 6
-8 -13 -15 -2 -1 -1 -3 -0 4 4 -7 -9 -7 -11 -14 -14 -14 -18 -9 -6 -4 -6 -7 -5 -6 -6 -5 -4 -7 -6 -2 2 2 2 1 -4 -1 -2 -1 6 6 6 6 6 5
-12 -14 -4 -2 -1 -1 -3 1 3 -6 -9 -13 -14 -16 -15 -15 -16 -14 -14 -12 -2 0 2 3 2 -3 -4 -3 -2 -4 -3 1 6 4 2 -0 3 4 6 5 6 5 6 4 4
-14 -12 -5 -1 -5 -2 1 2 -3 -8 -11 -12 -13 -14 -11 -11 -10 -10 -11 -3 -1 -3 1 3 2 -5 -5 -4 -1 0 -1 -2 2 2 5 3 0 4 5 5 5 4 5 4 2
-9 -2 -2 -2 -8 -0 0 0 -8 -11 -12 -12 -12 -9 -7 -9 -8 -9 -10 -3 -2 -4 -4 -0 1 -3 -4 -7 -7 -0 -1 3 4 5 5 3 2 6 6 6 5 5 3 2 1
-0 -0 -1 -6 -2 1 -0 -3 -9 -11 -11 -9 -8 -8 -8 -8 -9 -8 -8 -3 -4 -3 -2 -2 0 -1 -4 -5 -2 -5 2 4 5 4 4 5 5 6 6 5 5 4 2 1 -0
-2 -0 -2 -2 1 1 -2 -6 -11 -11 -12 -10 -9 -8 -7 -7 -7 -8 -8 -2 -3 -4 -3 -1 -1 2 -3 -6 -7 -6 -2 5 7 6 5 5 6 5 5 5 4 2 0 -0 -1
-2 -8 -11 0 0 -2 -6 -9 -9 -9 -9 -10 -8 -7 -8 -9 -7 -7 -4 -2 -5 -4 -3 -2 -2 -1 -6 -8 -4 -2 -3 2 4 5 6 6 6 4 4 2 1 1 -1 -1 -1
-1 -1 -6 -3 -4 -3 -5 -6 -7 -11 -11 -12 -10 -10 -9 -5 -7 -5 -6 -4 -7 -1 -1 -2 -1 -2 -2 -4 -2 -0 -1 -1 2 4 5 5 6 6 4 3 1 -0 -1 -2 -2
-1 -2 -4 -2 -3 -6 -5 -7 -5 -7 -9 -10 -8 -7 -7 -6 -6 -6 -7 -6 -8 -1 0 -2 -0 -0 -1 -2 -3 -3 -3 -3 -2 0 5 6 6 4 3 1 -1 -1 -2 -2 -3
-3 -6 -6 -7 -7 -7 -6 -8 -6 -8 -8 -9 -9 -8 -8 -8 -8 -6 -6 -7 -6 -7 -0 -0 -2 -1 -2 -5 -5 -2 -3 -2 -2 3 5 6 5 2 0 -1 -2 -2 -3 -3 -4
-4 -4 -8 -7 -6 -4 -5 -6 -6 -8 -9 -10 -8 -8 -8 -7 -7 -7 -7 -7 -6 -5 -5 -1 -2 -2 -3 -3 -2 -1 -2 -3 4 4 5 6 4 1 -1 -2 -3 -3 -3 -4 -5

GFSSW_850_dewp_102.txt.gz
Dewpoint
8 8 7 7 6 5 4 1 -4 -10 -11 -15 -18 -21 -20 -17 -15 -14 -13 -13 -13 -12 -17 -18 -11 -8 -6 -4 -2 -1 0 2 -1 -0 -2 -3 -2 -2 -2 -2 -3 -3 -4 -4 -8
9 9 8 8 7 6 4 1 -4 -9 -13 -15 -18 -20 -17 -16 -15 -12 -10 -11 -11 -11 -12 -14 -17 -10 -8 -2 -8 -2 1 -1 -2 -2 -2 -2 -2 -3 -3 -4 -4 -5 -6 -7 -7
10 9 8 8 8 7 5 1 -4 -9 -13 -16 -19 -19 -17 -17 -15 -10 -11 -12 -10 -12 -11 -8 -6 -7 -10 -4 -7 -5 -2 -3 -3 -2 -3 -4 -4 -5 -5 -4 -5 -6 -7 -8 -8
10 10 9 9 9 8 6 2 -4 -10 -13 -17 -18 -18 -18 -18 -10 -7 -12 -11 -14 -12 -13 -10 -6 -8 -12 -7 -6 -5 -5 -5 -5 -4 -5 -6 -7 -6 -6 -6 -7 -8 -8 -8 -8
10 10 9 9 9 8 6 2 -4 -11 -15 -16 -17 -18 -20 -19 -17 -14 -13 -10 -12 -17 -11 -12 -9 -10 -11 -10 -9 -6 -6 -6 -6 -7 -6 -6 -5 -5 -6 -8 -9 -9 -9 -9 -9
9 9 9 9 9 7 5 1 -4 -11 -15 -16 -18 -22 -20 -14 -11 -16 -12 -11 -11 -11 -11 -10 -7 -9 -4 -3 -5 -6 -8 -7 -7 -7 -8 -8 -8 -8 -8 -9 -9 -9 -10 -10 -11
10 10 9 9 9 6 4 0 -5 -12 -15 -18 -24 -22 -16 -14 -11 -18 -15 -10 -9 -9 -9 -6 -6 -6 -9 -9 -8 -5 -3 -5 -5 -6 -5 -6 -7 -7 -9 -10 -10 -11 -10 -10 -10
9 9 9 9 8 7 2 0 -5 -13 -16 -23 -19 -8 -9 -14 -24 -26 -21 -11 -8 -7 -7 -8 -9 -9 -10 -11 -7 -5 -4 -2 -5 -7 -7 -9 -5 -9 -9 -10 -11 -11 -10 -11 -12
9 8 8 9 7 7 3 2 -6 -14 -20 -21 -6 -2 -6 -16 -19 -9 -14 -18 -15 -9 -8 -6 -8 -9 -10 -8 -7 -4 -2 -3 -4 -7 -6 -8 -6 -10 -11 -11 -10 -10 -10 -11 -11
8 6 8 7 6 6 3 -2 -10 -15 -13 -10 0 -1 -8 -14 -3 -7 -9 -6 -8 -6 -6 -7 -9 -10 -9 -7 -4 -3 -2 -3 -3 -6 -8 -8 -9 -10 -11 -10 -10 -10 -10 -11 -10
7 6 7 7 6 4 3 1 -3 -6 -3 -7 -5 -9 -11 -3 -3 -6 -9 -4 -5 -7 -4 -9 -7 -6 -6 -8 -8 -5 -4 -4 -7 -9 -8 -8 -9 -10 -10 -10 -10 -10 -10 -9 -9
7 7 7 7 5 4 1 -8 -6 -4 -4 -6 -10 -4 -10 -5 -2 -4 -9 -5 -8 -5 -4 -3 -5 -7 -10 -10 -9 -8 -7 -7 -8 -9 -8 -8 -7 -8 -9 -9 -10 -10 -9 -8 -3
7 7 7 5 4 3 1 -3 -7 -3 -6 -9 -9 -5 -4 -5 -2 -3 -6 -9 -9 -8 -5 -3 -3 -4 -6 -5 -6 -6 -6 -5 -5 -6 -7 -7 -5 -6 -8 -9 -8 -3 3 6 6
7 7 6 4 3 0 -4 -11 -4 -5 -13 -15 -7 -8 -4 -1 1 -7 -6 -7 -9 -7 -7 -7 -8 -5 -5 -4 -5 -3 -5 -5 -3 -3 -1 -6 -1 -5 -6 -6 -6 6 6 5 4
7 6 4 3 1 -3 -4 -3 -4 -9 0 -11 -5 -10 -7 -4 -7 -4 -5 -7 -7 -7 -7 -6 -5 -6 -5 -6 -6 -5 -6 -4 -4 -3 -2 -4 -2 -3 -6 -6 6 6 5 4 3
6 5 3 1 -2 -2 -2 -3 -3 2 -4 -5 -6 -5 -3 -4 -7 -5 -5 -6 -5 -5 -5 -6 -6 -6 -6 -6 -7 -6 -6 -5 -3 -2 0 -3 -2 -3 -5 4 6 5 5 3 2
4 3 2 1 -1 -1 -2 -2 0 -2 -7 -2 -2 -4 -4 -4 -6 -6 -4 -2 -3 -4 -6 -3 -5 -6 -5 -3 -4 -4 -3 -0 0 2 1 -1 -1 -3 4 6 6 5 4 2 2
3 1 0 -0 0 -0 -1 1 -1 -5 -6 -13 -11 -8 -10 -13 -11 -13 -4 -1 -3 -1 1 -2 -4 -3 -5 -4 -7 -5 -3 0 2 3 1 -2 -0 -1 5 4 4 4 3 2 1
1 -0 -0 -1 1 -1 -2 1 -5 -5 -10 -10 -11 -11 -9 -10 -10 -9 -2 -0 -3 -3 -3 1 1 -4 -6 -7 -9 -6 1 -1 3 2 3 0 -1 4 5 4 5 4 2 1 0
-0 -2 -2 -0 0 -1 1 -1 -2 -9 -8 -7 -8 -7 -8 -8 -9 -9 -4 -3 -3 -4 -4 -1 -4 -3 -5 -10 -8 -7 -7 -0 2 4 4 1 1 2 5 5 3 3 1 0 -1
-1 -2 -1 0 -0 -0 0 1 -7 -10 -9 -6 -7 -7 -7 -8 -9 -8 -3 -4 -5 -3 -4 -5 -4 -3 -9 -7 -8 -6 -7 -4 2 3 4 4 3 5 5 4 3 2 1 -1 -2
-2 -0 -1 -0 1 0 1 -1 -8 -8 -8 -6 -6 -6 -6 -7 -8 -8 -3 -2 -3 -5 -4 -2 -2 -1 -5 -7 -6 -6 0 2 -2 -1 2 2 2 4 3 2 2 1 -0 -2 -3
-0 -0 0 -2 1 0 -2 -6 -6 -8 -8 -8 -8 -8 -9 -8 -7 -5 -1 -3 -5 -5 -2 -4 -3 -3 -7 -6 -5 -3 -4 -2 1 1 1 1 1 3 3 3 0 -1 -2 -2 -3
-6 -1 -1 -1 -0 -2 -4 -5 -7 -10 -8 -8 -7 -8 -7 -6 -6 -5 -5 -6 -8 -2 -1 -4 -3 -4 -5 -5 -2 -1 -3 -3 -2 -3 -2 -1 -1 -3 2 1 -1 -2 -3 -3 -4
-1 -4 -3 -1 -1 -4 -6 -5 -6 -7 -9 -9 -8 -7 -7 -6 -8 -7 -8 -7 -9 -3 -2 -3 -1 -1 -2 -2 -2 -2 -2 -2 -3 -4 -1 -4 -3 -2 2 -0 -2 -2 -3 -4 -4
-2 -3 -4 -4 -5 -6 -6 -6 -6 -8 -9 -9 -7 -8 -9 -8 -8 -7 -7 -7 -7 -1 -2 -2 -4 -1 -2 -2 -2 -3 -6 -6 -5 -4 -3 -3 -2 1 -1 -2 -3 -4 -4 -5 -5
-4 -5 -7 -5 -6 -5 -5 -6 -7 -7 -7 -8 -8 -8 -7 -8 -8 -8 -8 -8 -8 -7 -3 -2 -2 -3 -3 -7 -6 -5 -5 -3 -3 -0 -3 -1 -1 -1 -2 -4 -4 -5 -5 -5 -6

GFSSW_850_dewp_105.txt.gz
Dewpoint
9 9 9 9 8 8 8 7 5 4 -1 -4 -5 -7 -13 -13 -12 -10 -8 -11 -12 -14 -15 -14 -9 -7 -12 -6 -3 -4 -4 -3 -4 -2 -5 -2 -2 -3 -3 -2 -3 -4 -4 -6 -7
9 9 9 9 8 8 8 8 7 5 1 -4 -9 -12 -13 -14 -11 -7 -8 -10 -10 -9 -11 -14 -12 -9 -5 -6 -3 -1 -2 -5 -4 -4 -5 -3 -3 -3 -4 -4 -4 -4 -7 -7 -8
10 10 10 10 9 8 8 8 8 6 1 -5 -9 -13 -17 -15 -8 -10 -10 -9 -10 -11 -10 -8 -10 -12 -9 -4 -8 -5 -5 -3 -3 -3 -2 -4 -4 -4 -5 -4 -5 -5 -7 -8 -9
10 10 10 10 10 9 9 9 8 6 1 -4 -11 -15 -17 -16 -3 -9 -9 -12 -14 -12 -10 -7 -6 -8 -10 -7 -6 -8 -5 -5 -5 -5 -4 -4 -6 -6 -6 -6 -6 -9 -8 -8 -9
9 9 10 10 10 8 9 8 9 5 2 -5 -11 -15 -17 -16 -12 -5 -8 -11 -7 -8 -14 -11 -8 -9 -11 -12 -9 -5 -6 -5 -5 -5 -5 -6 -6 -6 -5 -7 -9 -8 -9 -9 -10
9 9 10 10 9 9 9 9 8 4 -0 -7 -12 -16 -17 -13 -7 -11 -13 -12 -13 -14 -13 -10 -12 -11 -8 -4 -7 -6 -8 -8 -7 -7 -7 -6 -6 -6 -7 -8 -8 -8 -9 -10 -11
5 7 8 9 9 9 9 9 8 1 -2 -9 -15 -19 -13 -8 -6 -8 -13 -16 -10 -10 -10 -9 -8 -3 -6 -9 -8 -7 -5 -5 -5 -5 -5 -6 -5 -5 -7 -7 -9 -10 -11 -11 -10
-2 6 7 9 9 9 8 8 7 4 -5 -13 -18 -14 -7 -4 -8 -11 -15 -14 -8 -8 -8 -7 -6 -4 -10 -10 -8 -6 -5 -5 -5 -6 -6 -7 -4 -7 -9 -11 -11 -10 -10 -10 -10
-2 7 6 8 7 8 7 7 5 4 -7 -15 -14 -5 -3 -6 -11 -18 -22 -24 -9 -8 -7 -8 -6 -7 -9 -8 -7 -5 -6 -3 -4 -6 -6 -7 -5 -8 -10 -11 -10 -10 -9 -9 -10
-0 4 6 7 7 7 7 6 4 1 -8 -10 -1 0 -2 -6 -5 -7 -6 -7 -14 -16 -11 -5 -7 -8 -8 -7 -5 -5 -4 -3 -3 -6 -7 -8 -9 -10 -10 -10 -9 -9 -8 -9 -9
4 6 7 7 7 6 6 4 3 1 -1 -3 -0 -3 -10 -4 -4 -5 -7 -5 -5 -5 -5 -8 -6 -4 -6 -7 -8 -7 -6 -7 -7 -9 -8 -6 -7 -8 -9 -9 -9 -8 -8 -8 -6
5 6 5 7 7 6 6 3 0 -1 -2 -3 -5 -5 -6 -5 -3 -3 -8 -3 -6 -4 -4 -5 -4 -6 -6 -7 -8 -8 -7 -6 -6 -7 -7 -6 -6 -7 -8 -8 -8 -8 -3 6 5
5 6 7 6 6 6 5 4 -2 -1 -0 -1 -2 -5 -4 -6 -6 -5 -5 -5 -5 -4 -4 -2 -3 -5 -7 -7 -6 -5 -4 -4 -4 -5 -6 -5 -6 -6 -7 -8 0 6 6 5 4
6 6 6 6 5 4 3 2 -3 -4 -4 -4 -8 -6 -4 -4 -2 -8 -4 -8 -8 -5 -6 -5 -6 -4 -4 -3 -4 -2 -6 -6 -5 -3 -3 -6 -3 -6 -7 -7 4 6 5 4 3
6 6 6 4 5 4 2 -7 -3 -4 3 -7 -6 -8 -3 -4 -6 -3 -7 -7 -7 -7 -7 -7 -6 -6 -5 -6 -6 -5 -5 -4 -4 -3 -3 -4 -3 -6 -6 -6 3 5 5 4 2
6 6 6 4 4 2 -1 0 -2 1 3 -5 -5 -4 1 -0 -6 -3 -5 -6 -7 -7 -6 -7 -6 -6 -6 -6 -6 -6 -5 -4 -3 -3 -0 -4 -4 -7 -6 -3 5 5 4 2 2
6 5 6 5 3 1 -0 -0 0 2 -5 -3 -3 -3 -3 -4 -4 -4 -3 -3 -3 -1 -2 -4 -6 -5 -4 -3 -5 -4 -3 -3 -1 1 -2 -3 -3 -6 -1 5 5 5 3 2 1
6 5 3 2 1 0 -0 1 2 -2 -4 -8 -7 -3 -2 -11 -11 -10 -2 -1 -3 -4 -2 -6 -2 -4 -6 -8 -7 -5 -2 -2 0 0 -0 -1 0 -3 5 4 4 3 2 1 0
4 2 1 1 1 0 -1 2 0 -4 -9 -9 -10 -8 -9 -10 -11 -3 -1 -1 -3 -3 -2 -0 -1 -5 -8 -8 -9 -4 0 -3 0 2 1 -3 -2 5 4 3 3 2 1 0 -1
3 1 -1 -0 -0 0 1 1 -4 -8 -8 -7 -7 -7 -8 -8 -9 -5 -2 -3 -3 -3 -4 -2 -2 -4 -5 -8 -10 -7 -9 -3 3 -0 -4 -8 -2 -1 4 3 3 2 1 -1 -2
1 -1 -1 -0 -0 0 1 -1 -5 -8 -9 -6 -7 -6 -7 -7 -8 -6 -3 -3 -3 -2 -5 -4 -5 -4 -7 -8 -8 -9 -9 -4 -1 2 -2 -7 -5 3 4 2 1 0 -1 -2 -2
-1 -1 -1 -1 1 0 -0 -3 -5 -6 -6 -6 -6 -6 -4 -2 -7 -7 -3 -3 -4 -4 -4 -3 -3 -4 -7 -6 -6 -6 -3 -1 -3 -4 0 0 -3 3 2 2 1 -0 -2 -2 -2
-1 -1 -1 -0 1 1 -3 -3 -5 -7 -8 -7 -5 -7 -7 -6 -6 -3 -2 -3 -5 -3 -2 -3 -3 -5 -4 -4 -6 -4 -5 -1 -0 -1 -0 -1 -4 2 1 1 -1 -2 -2 -3 -3
-1 -0 -1 -0 0 -2 -1 -2 -7 -8 -8 -7 -7 -8 -6 -5 -5 -4 -2 -7 -7 -1 -2 -4 -4 -7 -10 -6 -5 -2 -4 -5 -3 -1 -5 -4 -3 -4 -5 0 -2 -2 -2 -3 -4
-4 -2 -3 -1 -0 -2 -3 -5 -6 -7 -9 -9 -8 -7 -6 -5 -7 -6 -7 -8 -7 -1 -2 -3 -3 -3 -5 -5 -3 -3 -4 -4 -3 -4 -2 -4 -4 -4 -5 -0 -2 -3 -3 -4 -4
-2 -4 -4 -4 -2 -3 -5 -6 -7 -8 -8 -8 -7 -8 -9 -7 -8 -7 -7 -8 -8 -1 -1 -2 -2 -2 -3 -5 -5 -5 -7 -6 -6 -6 -6 -7 -4 -7 -1 -2 -3 -4 -4 -5 -5
-3 -5 -6 -4 -5 -4 -4 -6 -7 -5 -5 -8 -8 -7 -7 -7 -8 -9 -9 -9 -8 -4 -1 -2 -2 -4 -4 -7 -8 -8 -8 -6 -5 -2 -3 -1 -3 -1 -2 -4 -4 -4 -5 -5 -6

GFSSW_850_dewp_108.txt.gz
Dewpoint
10 10 10 9 9 8 8 8 8 8 8 7 5 2 -3 -3 -3 -3 -2 -4 -7 -12 -16 -14 -9 -6 -5 -5 -5 -7 -6 -5 -5 -5 -5 -6 -6 -5 -3 -4 -4 -4 -5 -5 -5
10 10 10 10 10 9 9 8 8 8 8 8 7 3 -3 -5 -3 0 -4 -10 -11 -11 -9 -6 -6 -6 -9 -8 -6 -8 -7 -7 -9 -8 -7 -8 -7 -7 -6 -7 -6 -6 -6 -6 -6
10 10 10 10 10 10 10 9 8 8 8 8 7 3 -3 -5 -2 -9 -9 -11 -11 -13 -8 -8 -10 -9 -11 -8 -9 -8 -7 -8 -8 -8 -9 -9 -9 -8 -7 -7 -7 -7 -7 -7 -6
8 9 10 10 10 10 10 9 8 8 8 8 7 5 -5 -6 1 -7 -8 -12 -14 -12 -7 -6 -8 -10 -11 -10 -10 -9 -10 -10 -10 -10 -9 -8 -9 -10 -10 -9 -9 -9 -8 -7 -6
7 8 9 9 9 9 10 9 9 8 8 8 6 4 -7 -7 -5 -7 -5 -8 -9 -10 -6 -7 -8 -9 -10 -13 -13 -8 -12 -12 -10 -10 -10 -11 -10 -10 -11 -10 -8 -7 -8 -7 -7
-2 3 7 8 9 9 9 9 9 9 8 8 5 0 -7 -5 -3 -3 -9 -13 -10 -5 -7 -8 -9 -9 -11 -13 -12 -11 -9 -9 -8 -7 -8 -7 -9 -8 -8 -8 -8 -8 -7 -8 -8
-4 -4 -2 0 7 8 8 9 9 9 8 7 1 -6 -2 -3 -1 -2 -5 -9 -8 -6 -7 -7 -8 -9 -9 -7 -8 -7 -7 -9 -9 -8 -8 -8 -7 -7 -8 -9 -8 -8 -9 -10 -8
-5 -4 -3 -1 3 7 8 8 8 8 7 6 -1 -9 -1 -1 -4 -3 -6 -8 -11 -6 -5 -5 -5 -4 -5 -8 -9 -7 -7 -5 -7 -7 -7 -6 -5 -8 -8 -8 -9 -10 -10 -9 -9
-8 -6 -4 0 4 7 7 7 7 7 6 4 -5 1 -1 -1 -4 -9 -9 -9 -10 -5 -4 -6 -6 -7 -8 -7 -6 -7 -5 -5 -6 -8 -8 -7 -6 -8 -8 -9 -10 -11 -10 -9 -8
-8 -5 -4 2 4 7 6 6 6 6 3 -1 -3 1 1 -0 -5 -5 -6 -9 -12 -6 -4 -6 -7 -6 -6 -7 -4 -5 -5 -6 -5 -7 -7 -7 -7 -10 -11 -12 -12 -11 -10 -8 -7
-6 -2 1 5 7 4 7 6 4 3 2 2 1 1 -6 -6 -5 -2 -6 -3 -10 -13 -11 -8 -7 -6 -7 -7 -8 -8 -7 -7 -8 -10 -9 -8 -7 -8 -9 -9 -9 -9 -9 -8 -2
-2 2 6 5 6 5 5 5 5 2 2 2 1 1 1 -1 -2 -2 -4 -4 -5 -8 -12 -9 -6 -11 -11 -9 -8 -8 -6 -6 -8 -8 -6 -6 -6 -8 -9 -9 -9 -9 -7 1 2
-3 4 6 5 6 6 5 6 5 2 1 2 1 1 0 -1 -1 -1 -4 -5 -4 -5 -6 -5 -7 -6 -7 -6 -4 -5 -5 -6 -5 -7 -7 -6 -6 -10 -10 -9 -7 -1 2 3 3
-1 5 6 6 6 5 5 5 3 -1 2 2 -2 -2 -1 -2 -2 -1 -3 -5 -4 -3 -4 -4 -6 -4 -5 -5 -6 -5 -8 -6 -6 -6 -6 -6 -7 -9 -10 -8 -3 1 3 4 3
4 5 6 6 5 4 5 4 3 1 5 -5 -5 -5 -3 -3 -6 -5 -4 -5 -4 -5 -3 -2 -7 -7 -4 -6 -6 -6 -10 -7 -6 -5 -5 -6 -5 -12 -9 -7 -2 2 4 3 2
5 5 6 6 5 5 5 0 -0 4 5 0 -7 -5 -3 -4 -5 -4 -6 -5 -6 -4 -6 -6 -8 -7 -7 -8 -8 -8 -6 -6 -5 -5 -2 -7 -8 -14 -8 -8 0 4 3 3 2
6 6 6 6 5 4 -1 -0 3 5 -4 -3 -4 -5 -4 -6 -5 -4 -5 -5 -4 -3 -4 -6 -7 -7 -5 -5 -6 -6 -4 -2 -2 -1 -4 -7 -8 -11 -3 1 3 4 3 2 2
6 5 5 5 4 3 0 2 5 1 -1 -7 -5 -5 -4 -9 -6 -4 -5 -5 -5 -5 -5 -4 -1 -5 -7 -6 -5 -5 -5 -4 -4 -6 -6 -4 -4 -2 3 3 3 2 2 1 1
6 4 5 3 3 2 2 4 4 2 -4 -4 -7 -2 -3 -8 -7 -4 -3 -6 -5 -4 -5 -2 -3 -6 -8 -9 -8 -5 -2 -5 -1 -3 -1 -7 -7 3 3 4 3 1 1 0 -1
4 2 1 1 2 2 2 5 2 -6 -9 -9 -6 -4 -3 -7 -9 -7 -2 -3 -3 -3 -3 0 -0 -4 -5 -9 -10 -6 -8 -2 -1 -2 -7 -12 -11 -7 3 3 1 1 -0 -0 -1
2 -0 -0 0 0 1 3 2 -2 -9 -10 -9 -8 -6 -6 -7 -9 -7 -3 -3 -3 -2 -2 -2 -2 -4 -6 -6 -6 -9 -9 -8 -5 -5 -5 -8 -11 3 4 2 2 -1 -1 -1 -2
-0 -1 -1 -0 1 1 2 0 -3 -4 -6 -7 -8 -6 -5 -2 -7 -6 -4 -3 -4 -5 -5 -4 -6 -6 -7 -7 -8 -9 -9 -11 -5 -8 -6 -5 -6 2 2 0 -0 -1 -1 -2 -2
-1 -2 -1 -1 2 1 -0 -1 -6 -7 -7 -6 -4 -7 -7 1 1 -2 -3 -4 -4 -5 -4 -5 -6 -7 -8 -6 -6 -7 -6 -5 -1 -3 -4 -3 -5 1 0 -0 -1 -2 -2 -2 -2
-0 0 -1 -1 -0 -1 -0 1 -2 -7 -8 -8 -5 -5 -3 -3 -3 -2 -3 -7 -4 -5 -3 -7 -8 -10 -13 -8 -7 -4 -6 -7 -4 -2 -6 -7 -8 -7 -6 -7 -4 -2 -2 -2 -3
0 1 -2 1 1 0 -1 -0 -2 -3 -9 -9 -8 -6 -5 -4 -5 -4 -5 -7 -5 -1 -2 -6 -5 -8 -9 -10 -8 -9 -9 -7 -6 -6 -3 -6 -4 -6 -8 -8 -2 -2 -3 -3 -3
-1 -3 -4 -3 -1 -0 -1 -3 -6 -8 -8 -8 -8 -8 -8 -8 -9 -6 -6 -7 -6 -3 -3 -3 -3 -4 -6 -8 -9 -9 -10 -10 -9 -8 -8 -9 -5 -10 -7 -2 -2 -3 -3 -4 -4
-3 -5 -4 -1 -1 -1 -2 -6 -7 -7 -7 -10 -9 -8 -8 -7 -8 -9 -8 -9 -8 -5 -2 -4 -4 -5 -6 -10 -10 -8 -9 -10 -11 -9 -7 -2 -3 -5 -2 -3 -3 -4 -4 -5 -5

GFSSW_850_dewp_114.txt.gz
Dewpoint
10 10 10 10 10 10 10 9 9 9 9 8 8 7 7 7 6 5 2 -0 -1 -2 -7 -6 -4 -4 -8 -11 -8 -8 -5 -3 -4 -4 -4 -7 -7 -7 -7 -6 -5 -5 -5 -5 -4
10 10 10 10 10 10 9 9 9 10 9 8 8 7 8 7 5 2 -0 -5 -10 -12 -10 -6 -5 -5 -5 -6 -7 -6 -3 -3 -5 -6 -6 -8 -8 -8 -8 -8 -6 -6 -6 -5 -5
10 9 10 9 10 10 10 10 9 9 9 9 9 8 8 7 3 -3 -5 -4 -2 -4 -3 -5 -6 -8 -6 -7 -7 -6 -3 -5 -5 -6 -6 -7 -8 -8 -8 -8 -9 -8 -7 -7 -7
8 7 8 9 8 7 9 9 9 9 9 9 9 8 7 7 3 2 0 0 -1 -4 -1 -4 -6 -6 -7 -5 -6 -5 -6 -6 -6 -7 -8 -8 -9 -9 -9 -8 -8 -8 -9 -9 -8
-1 -2 -1 -2 -1 -2 7 8 8 9 9 9 8 8 7 6 4 3 3 -0 -0 -2 -3 -3 -4 -4 -4 -5 -5 -5 -6 -7 -8 -8 -8 -9 -11 -10 -10 -10 -11 -11 -10 -10 -8
-6 -6 -6 -5 -5 -4 1 5 8 7 8 8 8 8 5 5 4 2 -3 -1 1 -2 -2 -3 -4 -4 -5 -5 -5 -5 -5 -6 -8 -9 -8 -8 -9 -8 -8 -8 -9 -10 -10 -10 -9
-15 -12 -11 -10 -9 -6 -3 1 7 5 7 7 7 7 4 5 3 4 -1 -3 -3 -2 -1 -3 -3 -4 -6 -5 -6 -6 -5 -6 -6 -7 -5 -6 -5 -6 -8 -8 -8 -8 -8 -8 -9
-16 -15 -13 -13 -11 -8 -4 -4 4 7 6 6 7 6 4 4 4 3 4 4 -2 -3 -2 -3 -3 -4 -5 -5 -6 -5 -4 -1 -5 -6 -6 -6 -3 -7 -8 -8 -8 -8 -9 -9 -9
-17 -16 -14 -11 -11 -6 -3 -1 4 7 6 6 6 5 4 2 3 2 1 -0 -1 -2 -4 -3 -4 -4 -4 -3 -2 -3 1 -0 -2 -6 -6 -6 -5 -7 -7 -8 -8 -7 -8 -9 -9
-22 -23 -18 -11 -5 -0 -0 6 5 6 5 5 3 2 2 2 2 -0 -4 -4 -2 -4 -5 -4 -5 -4 -3 -2 1 -1 -3 -4 -3 -6 -7 -6 -5 -7 -8 -8 -8 -8 -8 -9 -9
-22 -23 -20 -12 -3 -2 4 6 5 4 4 4 -0 1 -1 -0 -2 -2 -2 -4 -5 -6 -6 -5 -2 -1 -3 -3 -4 -4 -3 -3 -4 -6 -5 -5 -7 -7 -8 -9 -9 -8 -9 -10 -10
-23 -21 -12 -8 -3 1 5 5 4 5 4 3 3 2 1 -1 -0 -0 -0 -2 -2 -3 -5 -5 -1 -3 -4 -4 -4 -4 -3 -3 -5 -7 -6 -6 -7 -9 -9 -9 -10 -9 -9 -10 -10
-24 -17 -9 -6 -1 3 5 5 6 4 4 2 -1 0 -0 0 -0 -0 -2 -1 -1 -1 -1 -1 -3 -6 -6 -6 -6 -6 -5 -3 -5 -8 -7 -6 -6 -7 -8 -8 -9 -9 -10 -6 -4
-23 -13 -5 -3 2 4 5 5 5 4 6 -1 -4 -1 -1 -2 -1 -1 -1 -1 -2 0 -1 -2 -5 -5 -4 -4 -5 -4 -5 -4 -5 -4 -1 -6 -2 -5 -8 -10 -10 -10 -2 1 2
-21 -7 -3 -0 4 4 4 5 5 3 5 -10 -7 -3 -4 -1 -3 -6 -2 -1 -0 -0 -1 0 -2 -3 -1 -1 -3 -2 -4 -2 -2 -0 1 -3 -2 -5 -8 -9 -9 -3 2 2 2
-15 -6 -1 4 4 4 4 5 5 6 5 -6 -7 -4 -3 -3 -2 -4 -5 -5 -3 -2 -2 -1 -3 -3 -2 -1 -2 -7 -6 -3 -1 -2 2 -2 -3 -4 -7 -6 -7 2 2 2 2
-10 -3 1 5 4 4 4 4 5 6 -6 -6 -7 -5 -5 -5 -4 -3 -3 -4 -3 1 1 -1 -3 -4 -3 -1 -5 -5 -3 -0 5 3 2 -5 -4 -5 5 2 4 3 1 1 -0
-4 1 3 6 5 5 5 4 7 -2 -2 -10 -8 -7 -4 -5 -4 -4 -4 -4 -6 -3 -2 -1 2 -4 -4 -2 -2 -4 -2 4 4 3 2 4 3 3 3 4 3 1 -0 -1 -2
-0 5 6 6 5 4 4 5 3 -2 -7 -5 -6 -5 -6 -6 -5 -6 -6 -5 -6 -6 -2 0 0 -3 -4 -4 -5 -2 -0 -1 3 3 3 1 3 6 2 2 0 -1 -1 -2 -3
2 5 5 4 4 4 4 4 1 -3 -5 -6 -3 -4 -2 -5 -5 -4 -5 -6 -6 -7 -6 -3 0 1 -2 -7 -7 -7 -8 -0 5 7 3 -2 -3 5 5 3 1 -1 -2 -3 -4
4 4 3 4 3 3 4 4 2 -2 -3 -1 -2 -3 -2 -2 -2 1 -2 -7 -5 -6 -6 -4 0 2 -1 -3 -4 -5 -6 -6 -3 -2 5 1 -0 4 5 4 3 -2 -3 -4 -4
4 2 2 2 1 1 3 4 2 -1 -1 -0 -3 -2 -2 -2 -1 -4 -1 -1 -3 -4 -2 -0 1 3 0 -5 -8 -7 -5 -4 -0 -2 -2 -2 -2 2 3 1 -2 -3 -4 -4 -4
2 -0 1 1 3 3 1 4 2 2 0 -1 -3 -5 -4 -1 -1 -4 -5 -3 -3 -1 -0 0 3 2 -1 -1 -6 -6 -6 -7 -4 -2 -1 1 -2 -0 -2 -4 -3 -3 -3 -4 -3
0 0 -1 0 1 2 2 4 3 1 1 -2 -4 -4 -4 -3 -2 -1 -4 -4 -4 -4 -5 -2 -0 1 3 -1 -6 -3 -6 -8 -5 0 -2 -3 -5 -6 -1 -4 -7 -4 -3 -4 -3
0 1 -1 0 0 3 2 2 3 4 0 0 0 -1 -3 -1 0 1 -2 -3 -5 -4 -5 -4 -2 -3 -4 -7 -8 -10 -10 -8 -8 -6 -2 -2 -3 -5 -8 -5 -4 -4 -4 -4 -4
0 2 1 1 -1 1 3 4 4 2 1 2 -1 -2 -4 0 0 1 -2 -1 -0 -4 -2 -4 -0 -3 -3 -7 -9 -9 -11 -12 -11 -10 -9 -9 -7 -10 -10 -3 -2 -3 -3 -3 -4
-0 1 2 1 1 2 3 1 1 -1 -2 -3 -3 -2 -0 -1 -4 -5 -4 -5 -6 -2 -1 -2 -2 -3 -3 -8 -10 -8 -9 -11 -11 -12 -11 -5 -6 -2 -1 -0 -2 -3 -4 -4 -4

GFSSW_850_dewp_117.txt.gz
Dewpoint
10 10 10 10 10 10 9 9 9 9 9 9 8 8 7 6 4 1 1 -0 -1 -5 -6 -8 -4 -4 -4 -7 -10 -9 -5 -4 -4 -4 -5 -6 -8 -8 -8 -7 -7 -6 -5 -5 -4
10 10 10 10 10 9 9 9 9 8 9 9 9 8 8 7 5 0 -1 -5 -3 -1 -2 -5 -5 -5 -5 -6 -8 -9 -4 -5 -6 -5 -4 -5 -7 -8 -8 -8 -8 -6 -6 -6 -6
10 10 10 10 9 9 9 9 8 9 9 9 9 8 8 7 4 -2 -5 -2 1 -0 -2 -2 -5 -6 -7 -7 -6 -6 -5 -6 -5 -5 -5 -6 -7 -8 -8 -6 -7 -8 -8 -8 -7
7 7 7 7 5 5 5 5 4 8 7 7 8 8 7 7 5 2 2 3 3 0 -0 -1 -3 -5 -5 -6 -6 -5 -6 -6 -6 -6 -6 -6 -7 -9 -9 -9 -9 -10 -10 -9 -9
-3 -3 -3 -4 -4 -5 -4 -3 7 7 7 6 5 7 7 7 5 -0 4 3 -0 -1 0 -2 -3 -4 -3 -4 -4 -4 -4 -5 -5 -6 -6 -8 -8 -7 -8 -10 -11 -10 -10 -11 -10
-6 -7 -7 -7 -8 -8 -7 -6 -4 4 7 3 5 7 7 4 -5 5 4 -1 -2 0 -0 -2 -3 -3 -4 -4 -4 -5 -5 -5 -6 -6 -6 -6 -7 -7 -7 -8 -9 -8 -9 -10 -11
-18 -16 -14 -14 -12 -12 -11 -9 -5 -2 6 6 4 5 6 3 -8 -7 1 3 -3 -3 -1 -1 -2 -3 -3 -3 -5 -5 -4 -5 -6 -6 -6 -6 -5 -5 -6 -7 -7 -7 -8 -8 -9
-17 -16 -15 -13 -10 -10 -9 -9 -4 -1 4 6 5 6 4 -5 1 1 1 2 4 -1 -1 -3 -2 -2 -3 -3 -4 -4 -4 -2 -4 -5 -5 -5 -2 -6 -6 -7 -7 -7 -8 -8 -8
-19 -19 -19 -17 -13 -8 -10 -7 1 3 4 6 4 5 3 0 -1 -0 2 3 2 3 1 -3 -3 -2 -3 -2 -1 -2 -0 -1 -2 -4 -3 -4 -3 -6 -6 -7 -7 -8 -8 -8 -8
-19 -20 -21 -21 -12 -11 -5 -4 4 5 4 5 5 2 -1 -1 -1 1 -3 -4 0 -1 -2 -3 -4 -4 -3 -1 3 1 -0 -2 -2 -5 -5 -5 -5 -6 -7 -7 -7 -7 -8 -8 -8
-16 -20 -21 -17 -5 -9 -1 4 3 4 4 2 -2 -3 -3 -1 -1 1 -3 -4 -4 -3 -3 -4 -2 -1 -3 -3 -2 -2 -2 -1 -3 -5 -5 -5 -6 -7 -8 -7 -8 -7 -8 -8 -2
-14 -21 -17 -12 -4 -4 4 3 4 5 4 4 3 3 2 -1 1 -2 -1 -2 -4 -3 -4 -4 -2 -3 -3 -2 -2 -1 -1 -2 -5 -6 -6 -6 -6 -8 -8 -9 -9 -9 -9 -9 2
-10 -13 -12 -7 -3 -1 3 3 4 3 4 2 -0 2 2 3 2 1 -1 -1 -1 -0 -1 -1 -3 -5 -4 -3 -2 -2 -2 -3 -4 -4 -4 -3 -3 -6 -7 -9 -9 -9 -10 -8 3
-6 -9 -8 -2 -2 1 3 2 4 4 4 2 -1 -1 -0 1 0 -0 0 -1 -0 1 0 1 -2 -2 -2 -2 -4 -2 -3 -2 -2 2 3 -2 3 -1 -3 -6 -7 -8 -0 2 2
-4 -6 -4 0 3 3 2 3 4 4 2 -8 -6 -3 -2 -1 -2 -4 -3 -1 1 1 -0 1 0 0 1 -0 -3 -2 -0 -4 -4 -0 2 0 2 -1 -5 -5 -3 2 2 2 1
-3 -5 -2 -2 2 2 3 4 4 4 4 -3 -5 -2 -2 -2 -1 -3 -3 -2 -1 0 -0 -0 -3 -2 -1 -2 -2 -0 -1 -3 -3 0 4 1 1 0 -3 -2 5 4 2 1 0
-4 -4 -2 -0 3 2 2 5 5 5 -5 -8 -7 -4 -2 -2 -2 -3 -2 -1 -2 -1 0 -1 -1 -2 -2 -0 0 1 -1 3 4 3 2 -2 0 -2 6 5 5 3 0 -1 -1
-4 -3 -4 -2 1 3 3 4 5 -1 -4 -9 -8 -7 -4 -4 -4 -4 -2 -1 -3 -4 -2 0 2 -2 -0 -0 2 1 -1 4 6 5 3 1 4 7 6 4 4 1 -2 -2 -3
-3 -3 -1 1 3 4 4 4 2 -1 -6 -4 -5 -4 -4 -6 -5 -5 -3 -2 -4 -6 -2 -1 1 -3 -3 -4 -1 -1 -0 -2 3 3 4 2 5 5 4 4 3 3 2 1 -0
-1 -1 2 4 4 4 3 3 1 -3 -5 -4 -1 -3 -2 -3 -2 -4 -3 -6 -5 -6 -5 -2 1 1 0 -6 -6 -4 -6 3 5 6 5 1 1 7 6 5 4 2 -1 -3 -3
0 1 2 3 4 4 4 3 1 -1 -2 -1 -1 -1 0 -1 0 2 4 2 -1 -5 -5 -1 0 2 0 -0 -3 -4 -4 -4 2 3 5 5 3 4 5 4 2 -0 -3 -3 -3
2 1 2 3 2 1 3 2 0 -0 -1 -1 -0 0 2 0 1 2 4 4 -1 -3 -0 -0 3 5 3 -1 -3 -4 -2 -3 1 -1 0 1 1 4 4 3 0 -3 -3 -3 -3
1 1 2 2 3 2 2 2 1 1 2 1 1 0 1 -2 1 -1 0 -2 -3 -0 1 -0 2 3 2 1 -0 1 -4 -3 -2 -0 1 3 2 2 1 -1 -1 -2 -3 -3 -3
-0 -0 -0 1 2 2 2 2 2 1 1 1 2 -0 -1 -1 -1 -1 -1 -2 -4 -2 -2 -1 2 2 2 2 0 -1 -3 -5 -3 1 -1 -1 -3 -3 1 0 -2 -3 -3 -4 -4
-0 0 -1 -0 0 2 2 2 2 2 1 1 2 1 -0 1 -0 1 -1 -2 -4 -4 -4 -2 -1 -1 -2 -3 -3 -0 -2 -6 -4 -3 -1 -3 -1 -2 -2 -1 -2 -3 -3 -4 -4
-0 0 1 0 -1 1 2 4 2 1 2 4 2 1 2 3 2 4 0 0 -0 -2 -3 -3 1 -3 -2 -4 -5 -5 -8 -9 -9 -8 -8 -9 -6 0 -1 -2 -3 -3 -4 -4 -4
-0 0 1 0 1 1 1 2 3 1 2 1 2 2 2 2 0 -1 -4 -2 -1 -1 -0 -1 -0 -1 -0 -6 -6 -5 -7 -6 -9 -3 -3 -1 1 -1 -2 -3 -3 -4 -4 -4 -5